Location: Newark
(25.3833°N, 97.4000°E)
Time: 03:40:29
(UTC+00:00)

AO-85 - Visible Passes

Search period start: 28 February 2020 00:00
Search period end: 09 March 2020 00:00
Orbit: 520 x 763 km, 64.8° (Epoch: 19 February)

Date Brightness Start Highest point End Pass type
(mag) Time Alt. Az. Time Alt. Az. Time Alt. Az.
02 Mar ? 23:08:33 10° NNE 23:11:03 16° ENE 23:13:38 10° E visible
03 Mar ? 13:13:00 10° S 13:14:38 20° S 13:14:38 20° S visible
04 Mar ? 13:37:19 10° SW 13:40:21 37° SW 13:40:21 37° SW visible
05 Mar ? 12:22:25 10° SSE 12:26:19 26° ESE 12:28:25 18° ENE visible
05 Mar ? 14:03:03 10° WSW 14:06:08 21° WNW 14:06:08 21° WNW visible
05 Mar ? 22:40:59 10° N 22:44:25 28° ENE 22:47:59 10° ESE visible
06 Mar ? 12:46:02 10° SSW 12:50:45 78° ESE 12:54:13 16° NNE visible
06 Mar ? 23:04:58 10° NNW 23:08:56 84° WSW 23:13:05 10° SSE visible
07 Mar ? 13:11:02 10° SW 13:15:16 34° WNW 13:19:14 10° N visible
07 Mar ? 21:50:29 10° NNE 21:53:07 17° ENE 21:55:49 10° E visible
08 Mar ? 11:55:03 10° S 11:59:33 45° ESE 12:03:44 10° NE visible
08 Mar ? 13:38:02 10° W 13:39:57 12° WNW 13:41:49 10° NNW visible
08 Mar ? 22:14:17 13° NNW 22:17:43 53° ENE 22:21:46 10° SE visible
